When you browse on this site, cookies collect data to enhance your experience and personalize the content and advertising you see.
Visit our Privacy Policy to learn more. By continuing to use the site, you agree to this use of cookies and data.

Hourly Weather Linares

Today, 22 September, Tuesday

Time Temperature Precipitation Wind Pressure Humidity
00:00 +12°C° 0 mm 1 mps 748 mmHg 85%
01:00 +11°C° 0 mm 1 mps 748 mmHg 85%
02:00 +10°C° 0 mm 1 mps 748 mmHg 86%
03:00 +10°C° 0 mm 1 mps 748 mmHg 87%
04:00 +9°C° 0 mm 1 mps 748 mmHg 88%
05:00 +9°C° 0 mm 1 mps 748 mmHg 85%
06:00 +9°C° 0 mm 2 mps 748 mmHg 82%
07:00 +11°C° 0 mm 1 mps 749 mmHg 77%
08:00 +13°C° 0 mm 2 mps 748 mmHg 72%
09:00 +15°C° 0 mm 2 mps 748 mmHg 67%
10:00 +17°C° 0 mm 2 mps 748 mmHg 62%
11:00 +18°C° 0 mm 3 mps 748 mmHg 60%
12:00 +19°C° 0 mm 3 mps 748 mmHg 58%
13:00 +20°C° 0 mm 3 mps 748 mmHg 56%
14:00 +20°C° 0 mm 3 mps 748 mmHg 59%
15:00 +20°C° 0 mm 3 mps 747 mmHg 62%
16:00 +19°C° 0 mm 2 mps 747 mmHg 64%
17:00 +18°C° 0 mm 2 mps 748 mmHg 69%
18:00 +16°C° 0 mm 2 mps 748 mmHg 74%
19:00 +14°C° 0 mm 1 mps 749 mmHg 80%
20:00 +13°C° 0 mm 1 mps 749 mmHg 80%
21:00 +13°C° 0 mm 1 mps 749 mmHg 81%
22:00 +12°C° 0 mm 1 mps 749 mmHg 81%
23:00 +11°C° 0 mm 1 mps 749 mmHg 82%

Tomorrow, 23 September, Wednesday

Time Temperature Precipitation Wind Pressure Humidity
00:00 +10°C° 0 mm 1 mps 748 mmHg 83%
01:00 +9°C° 0 mm 2 mps 748 mmHg 85%
02:00 +9°C° 0 mm 1 mps 748 mmHg 85%
03:00 +9°C° 0 mm 1 mps 747 mmHg 85%
04:00 +8°C° 0 mm 1 mps 747 mmHg 85%
05:00 +9°C° 0 mm 1 mps 747 mmHg 83%
06:00 +10°C° 0 mm 1 mps 747 mmHg 81%
07:00 +10°C° 0 mm 1 mps 748 mmHg 80%
08:00 +13°C° 0 mm 1 mps 748 mmHg 73%
09:00 +16°C° 0 mm 2 mps 747 mmHg 66%
10:00 +18°C° 0 mm 2 mps 747 mmHg 59%
11:00 +19°C° 0 mm 2 mps 747 mmHg 56%
12:00 +21°C° 0 mm 2 mps 747 mmHg 53%
13:00 +23°C° 0 mm 2 mps 747 mmHg 50%
14:00 +23°C° 0 mm 1 mps 747 mmHg 53%
15:00 +23°C° 0 mm 1 mps 746 mmHg 55%
16:00 +22°C° 0 mm 1 mps 746 mmHg 58%
17:00 +20°C° 0 mm 1 mps 747 mmHg 65%
18:00 +18°C° 0 mm 1 mps 747 mmHg 71%
19:00 +15°C° 0 mm 1 mps 747 mmHg 78%
20:00 +14°C° 0 mm 1 mps 747 mmHg 77%
21:00 +14°C° 0 mm 1 mps 747 mmHg 77%
22:00 +13°C° 0 mm 1 mps 747 mmHg 77%
23:00 +12°C° 0 mm 1 mps 747 mmHg 77%

Day after tomorrow, 24 September, Thursday

Time Temperature Precipitation Wind Pressure Humidity
00:00 +12°C° 0 mm 1 mps 747 mmHg 77%
01:00 +11°C° 0 mm 1 mps 746 mmHg 77%
02:00 +11°C° 0 mm 1 mps 746 mmHg 77%
03:00 +11°C° 0 mm 1 mps 746 mmHg 77%
04:00 +10°C° 0 mm 1 mps 746 mmHg 77%
05:00 +11°C° 0 mm 1 mps 747 mmHg 75%
06:00 +12°C° 0 mm 1 mps 747 mmHg 74%
07:00 +13°C° 0 mm 1 mps 747 mmHg 73%
08:00 +15°C° 0 mm 1 mps 747 mmHg 68%
09:00 +18°C° 0 mm 1 mps 747 mmHg 63%
10:00 +19°C° 0 mm 2 mps 747 mmHg 57%
11:00 +21°C° 0 mm 2 mps 747 mmHg 54%
12:00 +23°C° 0 mm 2 mps 746 mmHg 51%
13:00 +24°C° 0 mm 2 mps 746 mmHg 48%
14:00 +23°C° 0 mm 1 mps 746 mmHg 50%
15:00 +23°C° 0 mm 1 mps 746 mmHg 52%
16:00 +23°C° 0 mm 1 mps 746 mmHg 53%
17:00 +20°C° 0 mm 1 mps 747 mmHg 61%
18:00 +18°C° 0 mm 1 mps 747 mmHg 69%
19:00 +15°C° 0 mm 1 mps 748 mmHg 76%
20:00 +13°C° 0 mm 1 mps 748 mmHg 79%
21:00 +12°C° 0 mm 1 mps 748 mmHg 82%
22:00 +11°C° 0 mm 1 mps 748 mmHg 85%
23:00 +10°C° 0 mm 1 mps 748 mmHg 88%

25 September, Friday

Time Temperature Precipitation Wind Pressure Humidity
00:00 +9°C° 0 mm 1 mps 748 mmHg 91%
01:00 +8°C° 0 mm 1 mps 748 mmHg 95%
02:00 +8°C° 0 mm 1 mps 748 mmHg 94%
03:00 +8°C° 0 mm 1 mps 748 mmHg 94%
04:00 +7°C° 0 mm 2 mps 748 mmHg 94%
05:00 +8°C° 0 mm 2 mps 749 mmHg 92%
06:00 +8°C° 0 mm 2 mps 749 mmHg 89%
07:00 +9°C° 0 mm 2 mps 749 mmHg 87%
08:00 +9°C° 0 mm 2 mps 749 mmHg 84%
09:00 +10°C° 0 mm 2 mps 750 mmHg 81%
10:00 +12°C° 0 mm 2 mps 750 mmHg 77%
11:00 +12°C° 0 mm 2 mps 750 mmHg 75%
12:00 +13°C° 0 mm 2 mps 750 mmHg 72%
13:00 +13°C° 0 mm 2 mps 750 mmHg 69%
14:00 +14°C° 0 mm 2 mps 750 mmHg 68%
15:00 +14°C° 0 mm 2 mps 750 mmHg 67%
16:00 +14°C° 0 mm 1 mps 750 mmHg 67%
17:00 +13°C° 0 mm 1 mps 751 mmHg 70%
18:00 +12°C° 0 mm 1 mps 751 mmHg 73%
19:00 +10°C° 0 mm 0 mps 751 mmHg 76%
20:00 +9°C° 0 mm 0 mps 752 mmHg 79%
21:00 +9°C° 0 mm 0 mps 752 mmHg 82%
22:00 +9°C° 0 mm 1 mps 752 mmHg 85%
23:00 +8°C° 0 mm 1 mps 752 mmHg 87%

26 September, Saturday

Time Temperature Precipitation Wind Pressure Humidity
00:00 +8°C° 0 mm 1 mps 751 mmHg 89%
01:00 +7°C° 0 mm 1 mps 751 mmHg 91%
02:00 +7°C° 0 mm 1 mps 751 mmHg 91%
03:00 +6°C° 0 mm 1 mps 751 mmHg 91%
04:00 +6°C° 0 mm 1 mps 751 mmHg 91%
05:00 +7°C° 0 mm 1 mps 751 mmHg 88%
06:00 +8°C° 0 mm 1 mps 751 mmHg 84%
07:00 +9°C° 0 mm 1 mps 751 mmHg 80%
08:00 +12°C° 0 mm 2 mps 751 mmHg 73%
09:00 +14°C° 0 mm 2 mps 750 mmHg 66%
10:00 +16°C° 0 mm 3 mps 750 mmHg 59%
11:00 +17°C° 0 mm 3 mps 750 mmHg 57%
12:00 +18°C° 0 mm 3 mps 750 mmHg 55%
13:00 +19°C° 0 mm 4 mps 749 mmHg 53%
14:00 +19°C° 0 mm 3 mps 749 mmHg 55%
15:00 +19°C° 0 mm 3 mps 749 mmHg 57%
16:00 +18°C° 0 mm 3 mps 749 mmHg 59%
17:00 +16°C° 0 mm 3 mps 749 mmHg 67%
18:00 +14°C° 0 mm 2 mps 749 mmHg 75%
19:00 +11°C° 0 mm 1 mps 749 mmHg 83%
20:00 +11°C° 0 mm 1 mps 749 mmHg 84%
21:00 +10°C° 0 mm 1 mps 749 mmHg 85%
22:00 +9°C° 0 mm 1 mps 749 mmHg 86%
23:00 +9°C° 0 mm 1 mps 749 mmHg 86%

27 September, Sunday

Time Temperature Precipitation Wind Pressure Humidity
00:00 +8°C° 0 mm 1 mps 749 mmHg 87%
01:00 +8°C° 0 mm 1 mps 748 mmHg 87%
02:00 +7°C° 0 mm 1 mps 748 mmHg 87%
03:00 +7°C° 0 mm 1 mps 748 mmHg 87%
04:00 +7°C° 0 mm 1 mps 748 mmHg 87%
05:00 +7°C° 0 mm 1 mps 748 mmHg 85%
06:00 +8°C° 0 mm 1 mps 748 mmHg 83%
07:00 +9°C° 0 mm 1 mps 748 mmHg 80%
08:00 +12°C° 0 mm 2 mps 748 mmHg 73%
09:00 +14°C° 0 mm 2 mps 747 mmHg 67%
10:00 +16°C° 0 mm 2 mps 747 mmHg 60%
11:00 +17°C° 0 mm 2 mps 747 mmHg 57%
12:00 +19°C° 0 mm 3 mps 746 mmHg 53%
13:00 +20°C° 0 mm 3 mps 746 mmHg 50%
14:00 +19°C° 0 mm 2 mps 746 mmHg 52%
15:00 +19°C° 0 mm 2 mps 745 mmHg 54%
16:00 +19°C° 0 mm 2 mps 745 mmHg 56%
17:00 +17°C° 0 mm 2 mps 745 mmHg 64%
18:00 +15°C° 0 mm 1 mps 746 mmHg 72%
19:00 +12°C° 0 mm 1 mps 746 mmHg 79%
20:00 +12°C° 0 mm 1 mps 746 mmHg 81%
21:00 +11°C° 0 mm 1 mps 746 mmHg 82%
22:00 +9°C° 0 mm 2 mps 746 mmHg 83%
23:00 +9°C° 0 mm 2 mps 745 mmHg 83%
Show more